Home > Weather > Bantam > Past weeks

Flag for Cocos Islands Past Weather in Bantam, Cocos Islands — Yesterday and Last 2 Weeks

Now
82 °F

Mostly cloudy.


Feels Like: 91 °F
Forecast: 80 / 84 °F
Wind: 9 mph from Southeast

Location: Cocos Island Airport

Current Time: May 26, 2016 at 11:03:42 PM

Latest Report: May 26, 2016 at 10:30 PM


Visibility: N/A

Pressure: 29.92 "Hg

Humidity: 84%

Dew Point: 77 °F

Location of BantamLocation

Past Weather in Bantam — Graph

°F

Bantam Temperature Yesterday

Maximum temperature yesterday: 84 °F (at 10:00 AM)
Minimum temperature yesterday: 79 °F (at 1:30 AM)
Average temperature yesterday: 81 °F

High & Low Weather Summary for the Past Weeks

 TemperatureHumidityPressure
High86 °F (May 14, 10:30 AM)100% (May 13, 7:30 AM)29.95 "Hg (May 13, 7:30 AM)
Low75 °F (May 13, 1:30 PM)62% (May 20, 11:30 AM)29.68 "Hg (May 12, 3:30 PM)
Average82 °F83%29.84 "Hg
* Reported May 11 9:30 PM — May 26 9:30 PM, Bantam, Weather by CustomWeather, © 2016

Note: Actual official high and low records may vary slightly from our data, if they occured in-between our weather recording intervals... More about our weather records

Advertising

Bantam Weather History for the Previous 24 Hours

Scroll right to see more
 ConditionsComfort  
Time TempWeatherWind HumidityBarometerVisibility
9:30 PM
Thu, May 26
82 °FPassing clouds.9 mph84%29.92 "HgN/A
9:00 PM82 °FPassing clouds.10 mph84%29.92 "HgN/A
8:30 PM82 °FPassing clouds.10 mph79%29.92 "HgN/A
8:00 PM82 °FClear.14 mph79%29.89 "HgN/A
7:30 PM82 °FPassing clouds.15 mph79%29.89 "HgN/A
7:00 PM82 °FPartly cloudy.15 mph84%29.89 "HgN/A
6:30 PM82 °FPartly sunny.15 mph84%29.89 "HgN/A
6:00 PM82 °FMore clouds than sun.13 mph84%29.86 "HgN/A
5:30 PM82 °FBroken clouds.16 mph84%29.86 "HgN/A
5:00 PM82 °FScattered clouds.13 mph84%29.83 "HgN/A
4:30 PM84 °FScattered clouds.12 mph79%29.83 "HgN/A
4:00 PM84 °FScattered clouds.13 mph79%29.83 "HgN/A
3:30 PM84 °FOvercast.13 mph79%29.83 "HgN/A
3:00 PM84 °FPartly sunny.14 mph74%29.83 "HgN/A
2:30 PM84 °FBroken clouds.14 mph74%29.83 "HgN/A
2:00 PM84 °FBroken clouds.15 mph79%29.86 "HgN/A
1:30 PM84 °FMostly cloudy.15 mph84%29.86 "HgN/A
1:00 PM86 °FMostly cloudy.15 mph75%29.86 "HgN/A
12:30 PM86 °FMostly cloudy.15 mph70%29.86 "HgN/A
12:00 PM86 °FMore clouds than sun.13 mph75%29.86 "HgN/A
11:30 AM82 °FCloudy.17 mph84%29.89 "HgN/A
11:00 AM82 °FSprinkles. More clouds than sun.15 mph84%29.89 "HgN/A
10:30 AM84 °FOvercast.17 mph79%29.89 "HgN/A
10:00 AM82 °FMostly cloudy.16 mph84%29.92 "HgN/A
9:30 AM82 °FMore clouds than sun.15 mph84%29.89 "HgN/A
9:00 AM82 °FCloudy.16 mph84%29.89 "HgN/A
8:30 AM82 °FMore clouds than sun.16 mph84%29.89 "HgN/A
8:00 AM84 °FOvercast.14 mph74%29.86 "HgN/A
7:30 AM82 °FMore clouds than sun.13 mph79%29.86 "HgN/A
6:30 AM81 °FPartly cloudy.14 mph84%29.83 "HgN/A
6:00 AM81 °FClear.15 mph89%29.83 "HgN/A
5:30 AM81 °FPassing clouds.14 mph89%29.83 "HgN/A
5:00 AM82 °FPassing clouds.12 mph84%29.83 "HgN/A
4:30 AM81 °FPartly cloudy.12 mph84%29.83 "HgN/A
4:00 AM81 °FPassing clouds.12 mph84%29.80 "HgN/A
3:30 AM81 °FPassing clouds.10 mph89%29.83 "HgN/A
3:00 AM81 °FClear.12 mph84%29.83 "HgN/A
2:30 AM81 °FClear.12 mph84%29.83 "HgN/A
2:00 AM81 °FClear.13 mph89%29.83 "HgN/A
1:30 AM81 °FPartly cloudy.12 mph89%29.86 "HgN/A
1:00 AM81 °FClear.12 mph84%29.86 "HgN/A
12:30 AM81 °FClear.10 mph84%29.86 "HgN/A
12:00 AM81 °FPassing clouds.12 mph84%29.86 "HgN/A
11:30 PM
Wed, May 25
81 °FPassing clouds.9 mph84%29.86 "HgN/A
11:00 PM81 °FClear.9 mph84%29.86 "HgN/A
Weather by CustomWeather, © 2016

See weather overviewHow to use our weather pages